Flag for U.S.A. Weather past 2 weeks in Baltimore, Maryland, U.S.A.

Now
71 °F

Fog.


Feels Like: 65 °F
Forecast: 72 / 89 °F
Wind: No wind

Location: Baltimore-Washington International Airport

Current Time: Jul 29, 2015 at 6:22:47 AM

Latest Report: Jul 29, 2015 at 5:54 AM


Visibility: 4 mi

Pressure: 29.98 "Hg

Humidity: 96%

Dew point: 70 °F

Location of BaltimoreLocation

Historic Weather in Baltimore — Graph

°F

Baltimore temperature yesterday

Maximum temperature yesterday: 89 °F (at 3:54 PM)
Minimum temperature yesterday: 73 °F (at 4:54 AM)
Average temperature yesterday: 80 °F

Past Weeks' High & Low Weather Summary

 TemperatureHumidityPressure
High96 °F (Jul 19, 4:54 PM)97% (Jul 28, 12:54 AM)30.09 "Hg (Jul 28, 12:54 AM)
Low61 °F (Jul 24, 5:54 AM)28% (Jul 24, 10:54 AM)29.53 "Hg (Jul 14, 6:54 PM)
Average78 °F67%29.88 "Hg
* Reported Jul 14 5:00 AM — Jul 29 4:54 AM, Baltimore, Weather by CustomWeather, © 2015

Note: Actual official high and low records may vary slightly from our data, if they occured in-between our weather recording intervals... More about our weather records

Advertising

Baltimore weather history for previous 24 hours

 ConditionsComfort  
Time TempWeatherWind HumidityBarometerVisibility
4:54 AM
Wed, Jul 29
72 °FPassing clouds.No wind93%29.97 "Hg9 mi
3:54 AM72 °FPassing clouds.No wind93%29.96 "Hg9 mi
2:54 AM71 °FPassing clouds.No wind96%29.98 "Hg10 mi
1:54 AM73 °FPassing clouds.No wind90%29.99 "Hg10 mi
12:54 AM74 °FPassing clouds.No wind91%29.99 "Hg10 mi
11:54 PM
Tue, Jul 28
76 °FPassing clouds.No wind85%30.00 "Hg10 mi
10:54 PM77 °FPassing clouds.No wind82%29.99 "Hg10 mi
9:54 PM79 °FPassing clouds.3 mph77%29.98 "Hg10 mi
8:54 PM81 °FScattered clouds.6 mph74%29.97 "Hg10 mi
7:54 PM84 °FScattered clouds.3 mph63%29.96 "Hg10 mi
6:54 PM88 °FScattered clouds.6 mph48%29.94 "Hg10 mi
5:54 PM89 °FScattered clouds.6 mph45%29.94 "Hg10 mi
4:54 PM89 °FScattered clouds.5 mph50%29.95 "Hg10 mi
3:54 PM89 °FScattered clouds.3 mph52%29.96 "Hg10 mi
2:54 PM88 °FScattered clouds.7 mph54%29.96 "Hg10 mi
1:54 PM87 °FScattered clouds.7 mph55%29.97 "Hg10 mi
12:54 PM87 °FScattered clouds.5 mph55%29.99 "Hg8 mi
11:54 AM84 °FScattered clouds.No wind63%30.01 "Hg7 mi
10:54 AM83 °FScattered clouds.No wind68%30.01 "Hg6 mi
10:04 AM81 °FBroken clouds.7 mph79%30.01 "Hg4 mi
9:54 AM80 °FBroken clouds.5 mph79%30.01 "Hg3 mi
8:54 AM77 °FFog.5 mph90%30.01 "Hg2 mi
7:54 AM75 °FFog.No wind94%30.01 "Hg4 mi
6:54 AM73 °FFog.No wind97%30.00 "Hg4 mi
Weather by CustomWeather, © 2015

See weather overviewHow to use our weather pages